STARLINK-34524, 64431

Orbit data source: Space-Track

STARLINK-34524, 64431 is a payload satellite owned by SpaceX/Seattle (US) in LEO that was launched on Tue, 17 Jun 2025 UTC via an FALCON 9 launch vehicle from the Air Force Western Test Range (AFWTR). Payload-class satellites include a variety of spacecraft equipped with specific instruments for various scientific and technological missions. These include communications satellites like Starlink; space stations such as the ISS; scientific satellites like the Hubble; Earth observation satellites from companies like Planet Labs, Umbra, and HawkEye 360; GPS; miniature CubeSats for education and research; and military/defense satellites.

Loading next visibility...
Identifier
64431, 2025-129V
Orbit
LEO
Country
Flag of USUS
Related business
Manufacturer
SpaceX/Seattle
Mission
Operational Commercial Communications
Bus & Motor
STARLINK V2MO, Unknown motor
Mass
575 kg wet, ~530 kg dry
Launch date (UTC)
2025-06-17 (1 year ago)
Launch vehicle
FALCON 9
Launch site
Air Force Western Test Range (AFWTR)
Object type
Payload
Rocket body
Debris
Shape & HBR
Box + 2 Pan, 17.7 m
Radar Cross Section
36.964 m², Large (>1 m²)

Expand to show TLE details & history
Last TLE update: 11 hours ago

TLE from 11 hours ago
0 STARLINK-34524
1 64431U 25129V   26171.39658889  .00003806  00000-0  32652-3 0  9998
2 64431  70.0005 175.4196 0004346 267.8574  92.2087 14.98332095 56611
Epoch: 2026-06-20T09:31Z
TLE epoch observation values (Epoch: 2026-06-20T09:31:05.280Z)
Latitude
-0.00004°
Longitude
124.03578°
Altitude
574.591 km
Speed
7.574 km/s
True Right ascension
11h 41m 40s
True Declination
0° 00' 00"
Sunlit
Object was in daylight at epoch
Visualization orbit readout
Latitude
Unknown
Longitude
Unknown
Altitude
Unknown
Speed
Unknown
Apparent Right ascension
Unknown
Apparent Declination
Unknown
Sunlit
N/A
Visualization observer readout
Local Sidereal Time
07:13:38
Azimuth
Unknown
Elevation
Unknown
Doppler factor
Unknown
Orbital elements
Apogee altitude
573.017 km
Perigee altitude
566.978 km
Semi-major axis
6,948.135 km
Eccentricity
0.00043
Inclination
70.0005°
RAAN
175.4196°
Arg. of periapsis
267.8574°
True anomaly
92.25846°
Mean anomaly
92.2087°
Eccentric anomaly
92.23358°
Mean motion
3.74749 °/min
Orbital period
96.06 mins
BSTAR
0.00032652
Loading maneuver chart data...
Computing Atmospheric mass density...
Loading historical data...
Loading historical data...
Loading historical data...
Loading historical data...
Loading historical data...
Loading historical data...
Loading historical data...

Documentation

Showing up to 5 results
|